When you browse on this site, cookies collect data to enhance your experience and personalize the content and advertising you see.
Visit our Privacy Policy to learn more. By continuing to use the site, you agree to this use of cookies and data.
  • en Suisse
  • Liste des pays
  • À 7 jours
  • Température de l'eau
  • Carte satellitaire
  • Carte météo
  • Widgets météo
  • user-avatar
    Se connecter

    Météo par heure à Nairobi

    Ce jour, 23 Janvier, Mercredi

    Heure Température Précipitation Vent Pression Humidité
    00:00 +17°C° 0 mm 3 m/s 623 mmHg 83%
    01:00 +17°C° 0 mm 3 m/s 622 mmHg 84%
    02:00 +17°C° 0 mm 2 m/s 622 mmHg 80%
    03:00 +16°C° 0 mm 2 m/s 622 mmHg 80%
    04:00 +16°C° 0 mm 2 m/s 622 mmHg 80%
    05:00 +16°C° 0 mm 1 m/s 622 mmHg 80%
    06:00 +17°C° 0 mm 2 m/s 623 mmHg 73%
    07:00 +19°C° 0 mm 2 m/s 624 mmHg 66%
    08:00 +21°C° 0 mm 3 m/s 624 mmHg 60%
    09:00 +24°C° 0 mm 3 m/s 625 mmHg 55%
    10:00 +25°C° 0 mm 3 m/s 625 mmHg 49%
    11:00 +27°C° 0 mm 3 m/s 625 mmHg 43%
    12:00 +27°C° 0 mm 4 m/s 625 mmHg 43%
    13:00 +28°C° 0 mm 4 m/s 624 mmHg 43%
    14:00 +28°C° 0 mm 5 m/s 624 mmHg 43%
    15:00 +27°C° 0.2 mm 5 m/s 623 mmHg 51%
    16:00 +25°C° 0.2 mm 5 m/s 623 mmHg 59%
    17:00 +23°C° 0.2 mm 6 m/s 622 mmHg 67%
    18:00 +22°C° 0.1 mm 5 m/s 622 mmHg 72%
    19:00 +20°C° 0.1 mm 5 m/s 623 mmHg 78%
    20:00 +19°C° 0.1 mm 5 m/s 623 mmHg 83%
    21:00 +19°C° 0 mm 5 m/s 623 mmHg 84%
    22:00 +17°C° 0 mm 5 m/s 623 mmHg 85%
    23:00 +18°C° 0 mm 4 m/s 624 mmHg 86%

    Demain, 24 Janvier, Jeudi

    Heure Température Précipitation Vent Pression Humidité
    00:00 +17°C° 0 mm 4 m/s 623 mmHg 87%
    01:00 +17°C° 0 mm 3 m/s 623 mmHg 88%
    02:00 +16°C° 0 mm 3 m/s 623 mmHg 89%
    03:00 +16°C° 0 mm 2 m/s 623 mmHg 89%
    04:00 +16°C° 0 mm 2 m/s 623 mmHg 88%
    05:00 +15°C° 0 mm 2 m/s 623 mmHg 88%
    06:00 +17°C° 0 mm 2 m/s 624 mmHg 79%
    07:00 +19°C° 0 mm 2 m/s 624 mmHg 70%
    08:00 +21°C° 0 mm 3 m/s 625 mmHg 60%
    09:00 +24°C° 0 mm 3 m/s 625 mmHg 52%
    10:00 +26°C° 0 mm 4 m/s 626 mmHg 43%
    11:00 +27°C° 0 mm 4 m/s 626 mmHg 35%
    12:00 +28°C° 0 mm 5 m/s 625 mmHg 33%
    13:00 +29°C° 0 mm 5 m/s 625 mmHg 32%
    14:00 +29°C° 0 mm 5 m/s 624 mmHg 30%
    15:00 +28°C° 0 mm 5 m/s 624 mmHg 37%
    16:00 +27°C° 0 mm 6 m/s 623 mmHg 43%
    17:00 +24°C° 0 mm 6 m/s 623 mmHg 49%
    18:00 +22°C° 0 mm 6 m/s 623 mmHg 58%
    19:00 +21°C° 0 mm 5 m/s 623 mmHg 67%
    20:00 +19°C° 0 mm 5 m/s 623 mmHg 75%
    21:00 +17°C° 0 mm 5 m/s 623 mmHg 77%
    22:00 +17°C° 0 mm 4 m/s 623 mmHg 79%
    23:00 +17°C° 0 mm 4 m/s 623 mmHg 80%

    Après-demain, 25 Janvier, Vendredi

    Heure Température Précipitation Vent Pression Humidité
    00:00 +16°C° 0 mm 3 m/s 623 mmHg 82%
    01:00 +16°C° 0 mm 3 m/s 622 mmHg 83%
    02:00 +15°C° 0 mm 2 m/s 622 mmHg 85%
    03:00 +15°C° 0 mm 2 m/s 622 mmHg 84%
    04:00 +15°C° 0 mm 2 m/s 622 mmHg 84%
    05:00 +15°C° 0 mm 1 m/s 622 mmHg 83%
    06:00 +17°C° 0 mm 2 m/s 623 mmHg 71%
    07:00 +19°C° 0 mm 2 m/s 624 mmHg 59%
    08:00 +22°C° 0 mm 3 m/s 626 mmHg 47%
    09:00 +25°C° 0 mm 3 m/s 626 mmHg 40%
    10:00 +26°C° 0 mm 4 m/s 626 mmHg 33%
    11:00 +28°C° 0 mm 5 m/s 626 mmHg 26%
    12:00 +29°C° 0 mm 5 m/s 626 mmHg 26%
    13:00 +29°C° 0 mm 5 m/s 625 mmHg 26%
    14:00 +29°C° 0 mm 5 m/s 624 mmHg 26%
    15:00 +28°C° 0 mm 6 m/s 624 mmHg 32%
    16:00 +27°C° 0 mm 6 m/s 623 mmHg 38%
    17:00 +26°C° 0 mm 6 m/s 623 mmHg 44%
    18:00 +23°C° 0 mm 6 m/s 623 mmHg 54%
    19:00 +21°C° 0 mm 6 m/s 623 mmHg 63%
    20:00 +19°C° 0 mm 6 m/s 624 mmHg 72%
    21:00 +19°C° 0 mm 5 m/s 624 mmHg 75%
    22:00 +17°C° 0 mm 5 m/s 624 mmHg 78%
    23:00 +16°C° 0 mm 5 m/s 624 mmHg 80%

    26 Janvier, Samedi

    Heure Température Précipitation Vent Pression Humidité
    00:00 +17°C° 0 mm 4 m/s 623 mmHg 81%
    01:00 +15°C° 0 mm 4 m/s 623 mmHg 81%
    02:00 +16°C° 0 mm 3 m/s 622 mmHg 81%
    03:00 +16°C° 0 mm 3 m/s 622 mmHg 80%
    04:00 +15°C° 0 mm 2 m/s 622 mmHg 79%
    05:00 +15°C° 0 mm 2 m/s 622 mmHg 77%
    06:00 +17°C° 0 mm 2 m/s 623 mmHg 69%
    07:00 +19°C° 0 mm 2 m/s 624 mmHg 60%
    08:00 +21°C° 0 mm 3 m/s 625 mmHg 52%
    09:00 +24°C° 0 mm 3 m/s 626 mmHg 46%
    10:00 +26°C° 0 mm 4 m/s 626 mmHg 40%
    11:00 +27°C° 0 mm 5 m/s 626 mmHg 34%
    12:00 +28°C° 0 mm 5 m/s 625 mmHg 34%
    13:00 +28°C° 0 mm 5 m/s 625 mmHg 34%
    14:00 +29°C° 0 mm 6 m/s 624 mmHg 34%
    15:00 +27°C° 0.2 mm 6 m/s 624 mmHg 43%
    16:00 +26°C° 0.2 mm 6 m/s 623 mmHg 52%
    17:00 +23°C° 0.2 mm 6 m/s 623 mmHg 61%
    18:00 +22°C° 0.3 mm 6 m/s 623 mmHg 69%
    19:00 +20°C° 0.3 mm 5 m/s 624 mmHg 77%
    20:00 +17°C° 0.3 mm 5 m/s 624 mmHg 85%
    21:00 +17°C° 0 mm 5 m/s 624 mmHg 86%
    22:00 +18°C° 0 mm 4 m/s 624 mmHg 87%
    23:00 +17°C° 0 mm 4 m/s 624 mmHg 89%

    27 Janvier, Dimanche

    Heure Température Précipitation Vent Pression Humidité
    00:00 +17°C° 0 mm 4 m/s 623 mmHg 88%
    01:00 +16°C° 0 mm 3 m/s 623 mmHg 87%
    02:00 +16°C° 0 mm 3 m/s 622 mmHg 86%
    03:00 +16°C° 0 mm 3 m/s 622 mmHg 84%
    04:00 +15°C° 0 mm 2 m/s 622 mmHg 82%
    05:00 +15°C° 0 mm 2 m/s 623 mmHg 80%
    06:00 +17°C° 0 mm 3 m/s 624 mmHg 72%
    07:00 +19°C° 0 mm 3 m/s 625 mmHg 64%
    08:00 +21°C° 0 mm 4 m/s 626 mmHg 56%
    09:00 +23°C° 0 mm 4 m/s 626 mmHg 48%
    10:00 +26°C° 0 mm 5 m/s 626 mmHg 41%
    11:00 +28°C° 0 mm 5 m/s 626 mmHg 33%
    12:00 +28°C° 0 mm 5 m/s 625 mmHg 32%
    13:00 +29°C° 0 mm 6 m/s 624 mmHg 32%
    14:00 +29°C° 0 mm 6 m/s 624 mmHg 32%
    15:00 +28°C° 0 mm 6 m/s 624 mmHg 38%
    16:00 +26°C° 0 mm 6 m/s 623 mmHg 44%
    17:00 +24°C° 0 mm 6 m/s 623 mmHg 49%
    18:00 +23°C° 0 mm 6 m/s 623 mmHg 57%
    19:00 +21°C° 0 mm 6 m/s 623 mmHg 64%
    20:00 +19°C° 0 mm 6 m/s 624 mmHg 71%
    21:00 +17°C° 0 mm 5 m/s 624 mmHg 74%
    22:00 +17°C° 0 mm 5 m/s 624 mmHg 77%
    23:00 +17°C° 0 mm 4 m/s 624 mmHg 79%

    28 Janvier, Lundi

    Heure Température Précipitation Vent Pression Humidité
    00:00 +17°C° 0 mm 4 m/s 623 mmHg 80%
    01:00 +16°C° 0 mm 3 m/s 623 mmHg 81%
    02:00 +16°C° 0 mm 3 m/s 622 mmHg 82%
    03:00 +14°C° 0 mm 3 m/s 622 mmHg 81%
    04:00 +14°C° 0 mm 3 m/s 623 mmHg 79%
    05:00 +14°C° 0 mm 3 m/s 623 mmHg 77%
    06:00 +17°C° 0 mm 4 m/s 624 mmHg 69%
    07:00 +19°C° 0 mm 5 m/s 625 mmHg 60%
    08:00 +21°C° 0 mm 6 m/s 626 mmHg 51%
    09:00 +22°C° 0 mm 6 m/s 626 mmHg 46%
    10:00 +24°C° 0 mm 6 m/s 626 mmHg 41%
    11:00 +27°C° 0 mm 5 m/s 626 mmHg 35%
    12:00 +28°C° 0 mm 6 m/s 625 mmHg 33%
    13:00 +28°C° 0 mm 6 m/s 625 mmHg 31%
    14:00 +29°C° 0 mm 6 m/s 624 mmHg 28%
    15:00 +28°C° 0 mm 6 m/s 624 mmHg 33%
    16:00 +27°C° 0 mm 6 m/s 623 mmHg 38%
    17:00 +24°C° 0 mm 7 m/s 623 mmHg 43%
    18:00 +22°C° 0 mm 6 m/s 623 mmHg 52%
    19:00 +21°C° 0 mm 6 m/s 623 mmHg 62%
    20:00 +19°C° 0 mm 5 m/s 624 mmHg 71%
    21:00 +17°C° 0 mm 5 m/s 623 mmHg 73%
    22:00 +16°C° 0 mm 5 m/s 623 mmHg 74%
    23:00 +17°C° 0 mm 4 m/s 623 mmHg 76%
    Voir plus